CAPE
29 156 101 43 29 142 139 270 689 1148 1007 897 1385 1572 1495 1403 1306 1113 959 801 851 1354 1427 1514 1320 1349 1146 990 730 517 56 43 25
51 167 117 12 11 97 207 274 789 1097 1315 1163 1468 1461 1465 1520 1414 1199 1144 1253 1414 1582 1471 1342 1287 1326 1381 1184 854 364 132 130 59
87 179 103 14 15 135 298 270 785 1148 1492 1411 1610 1758 1510 1421 1571 1654 1472 1512 1291 1513 1611 1477 1208 1431 1561 1041 729 428 284 165 164
86 300 187 94 103 143 242 395 798 1326 1531 1486 1712 1944 1875 1728 1443 1364 1826 1798 1599 1530 1632 1538 1349 1281 1196 912 679 575 507 282 182
142 311 259 156 153 212 183 563 829 1270 1794 1682 1745 2007 2061 2047 1984 1741 1552 1643 1893 1976 1899 1554 1410 1454 1339 951 797 700 597 391 200
195 343 253 70 70 129 341 589 747 1288 1689 2002 2010 2111 2126 2397 2297 2196 2016 1737 1664 1883 2043 1746 1491 1485 1219 1108 960 822 700 484 310
108 101 127 70 81 176 377 667 777 1268 1464 2165 2237 2363 2239 2317 2544 2414 2356 2180 1933 1845 1894 2139 1694 1549 1502 1445 1289 1180 1067 915 768
152 114 45 46 15 203 427 812 882 1177 1567 1963 2309 2442 2596 2449 2553 2640 2590 2523 2271 2019 2012 1990 2038 1646 1591 1525 1403 1363 1302 1205 1037
15 103 86 4 77 277 345 822 1001 1095 1437 2207 2380 2614 2666 2770 2709 2648 2656 2783 2720 2453 2177 2426 2359 2158 1921 1779 1740 1739 1691 1642 1415
0 60 7 2 217 299 491 845 1044 1105 1507 2044 2606 2683 2879 2919 2879 2809 2744 2725 2813 2910 2772 2539 2668 2884 3031 2868 2612 2407 2188 1916 1778
0 21 9 164 354 461 680 873 1108 1199 1404 1820 2533 2698 2852 3045 2925 2864 2822 2857 2903 2893 3008 2965 2823 2640 2797 2933 2850 2505 2659 2294 2478
0 0 0 6 602 506 604 857 1139 1242 1376 1765 1975 2500 2686 2896 2872 2764 2844 2822 2927 2958 3053 3136 3143 3200 3163 2974 2624 2476 3038 2840 2637
0 0 0 37 256 1085 800 829 861 1114 1326 1596 1861 2062 2461 2717 2749 2702 2767 2875 2892 2959 3038 3118 3228 3346 3391 3081 2614 2729 2899 2801 1974
400 0 0 0 0 581 1517 978 794 871 1072 1346 1652 1942 2042 2426 2654 2668 2674 2902 2956 3075 3070 3197 3232 3330 3397 2918 3161 3367 2331 1468 976
576 487 374 0 0 0 238 1482 1234 1037 977 1098 1432 1630 1787 1898 2391 2474 2680 2998 3087 3127 3177 3225 3115 2721 2740 3126 2641 1876 1007 760 380
722 1646 1947 2052 239 0 37 961 1465 1257 1209 1163 1313 1432 1687 1857 2087 2588 2987 3037 3118 3184 3209 2905 2476 2282 2315 2021 1359 773 544 525 553
2530 2687 2896 2986 2814 2461 2418 1908 1850 1549 1514 1931 1995 2236 3191 3216 2965 2918 3013 3035 2992 3098 2980 2647 2415 2147 1299 991 793 696 662 616 672
2131 2392 2754 3107 3301 3204 3040 3118 3076 3001 2524 3235 3165 2996 2832 2959 2928 3067 3110 3143 3109 2467 2281 2068 1745 1180 937 899 765 731 688 634 539
1465 1444 1583 1916 1994 2461 2352 2838 3110 3245 2963 2725 2954 3157 2857 2695 3255 3158 3074 2359 1370 1272 1173 1268 970 848 876 877 787 691 595 184 24
1088 1059 871 613 876 673 475 965 952 3342 3135 2979 3063 2853 2885 2722 2242 1417 1238 1284 1211 1043 821 711 948 989 991 741 577 241 0 0 0
CIN
-62 -129 -121 -87 -277 -340 -304 -336 -437 -368 -365 -307 -250 -192 -156 -155 -124 -140 -200 -178 -90 -96 -77 -57 -81 -93 -113 -105 -119 -132 -309 -287 -305
-66 -101 -107 -100 -223 -325 -342 -373 -472 -452 -406 -343 -296 -274 -233 -216 -194 -145 -181 -119 -102 -51 -77 -92 -51 -114 -79 -82 -120 -166 -311 -261 -283
-92 -52 -54 -81 -85 -372 -391 -342 -462 -469 -425 -376 -358 -283 -293 -255 -201 -162 -138 -78 -103 -111 -73 -86 -115 -87 -79 -113 -138 -111 -204 -333 -289
-122 -66 -62 -61 -92 -86 -441 -369 -456 -463 -441 -372 -338 -299 -270 -263 -259 -220 -136 -97 -156 -149 -97 -90 -122 -99 -111 -124 -129 -104 -115 -153 -264
-81 -67 -50 -49 -134 -98 -335 -379 -453 -447 -461 -400 -372 -332 -277 -251 -230 -230 -229 -199 -156 -118 -97 -119 -135 -121 -123 -139 -141 -124 -114 -112 -286
-80 -41 -40 -12 -38 -113 -50 -401 -434 -444 -476 -433 -379 -325 -297 -227 -214 -213 -238 -248 -230 -197 -117 -107 -119 -102 -116 -115 -135 -116 -110 -91 -105
-18 -10 -7 -12 -16 -29 -66 -404 -397 -460 -499 -436 -400 -336 -324 -285 -234 -251 -253 -255 -244 -234 -199 -102 -112 -114 -100 -86 -72 -77 -71 -69 -62
-20 -11 -7 -121 -154 -153 -324 -374 -388 -447 -476 -471 -420 -362 -329 -352 -297 -258 -228 -220 -248 -234 -218 -165 -101 -122 -108 -95 -92 -93 -75 -70 -52
-31 -26 -21 -15 -193 -147 -128 -344 -357 -411 -438 -471 -421 -350 -358 -329 -303 -267 -240 -202 -200 -212 -208 -139 -113 -87 -77 -73 -79 -62 -38 -18 -32
0 -14 -11 -88 -137 -87 -196 -321 -376 -398 -454 -482 -433 -387 -328 -311 -300 -280 -263 -230 -194 -168 -147 -128 -88 -20 -3 -2 -2 -11 -12 -6 -19
0 -75 -62 -221 -146 -110 -185 -269 -348 -349 -422 -442 -456 -404 -344 -308 -319 -312 -265 -227 -209 -170 -128 -97 -77 -62 -26 -14 -13 -16 -6 -4 0
0 0 0 -61 -239 -115 -179 -220 -264 -315 -364 -416 -419 -421 -396 -357 -324 -325 -272 -252 -222 -173 -112 -73 -65 -51 -26 -29 -81 -38 -1 0 0
0 0 0 -76 -293 -293 -106 -80 -153 -259 -329 -383 -380 -420 -450 -429 -357 -319 -308 -264 -230 -176 -127 -104 -80 -54 -14 -9 -40 -24 0 0 0
-176 0 0 0 0 -272 -250 -96 -200 -317 -318 -344 -360 -406 -415 -440 -362 -313 -292 -254 -189 -155 -113 -83 -52 -8 -5 -9 -7 0 -1 -22 -51
-187 -144 -186 0 0 0 -342 -298 -140 -147 -285 -320 -371 -377 -348 -361 -381 -288 -269 -214 -151 -101 -82 -44 -25 -28 -32 -1 -7 -27 -75 -83 -147
-481 -412 -328 -270 -105 0 -119 -498 -256 -168 -139 -243 -376 -311 -485 -475 -374 -314 -240 -199 -103 -61 -47 -27 -31 -60 -38 -24 -62 -129 -151 -94 -31
-239 -232 -172 -222 -303 -461 -512 -459 -272 -241 -473 -355 -517 -446 -313 -263 -259 -224 -177 -115 -81 -67 -40 -34 -85 -52 -116 -169 -179 -162 -103 -39 -5
-92 -91 -85 -109 -146 -153 -274 -426 -401 -388 -463 -448 -392 -317 -260 -153 -125 -96 -55 -28 -12 -40 -37 -109 -83 -187 -209 -196 -146 -104 -36 -15 -29
-28 -37 -73 -55 -62 -104 -122 -63 -126 -309 -345 -320 -316 -228 -178 -62 -35 -13 -8 -45 -69 -120 -99 -76 -199 -247 -227 -162 -109 -66 -46 -168 -57
-57 -69 -65 -73 -50 -61 -91 -17 -11 -133 -88 -46 -136 -142 -62 -62 -75 -97 -83 -114 -43 -171 -243 -227 -212 -184 -158 -157 -178 -200 -6 0 0
Wind_Speed
nan 23 32 nan nan 17 18 24 27 25 24 21 19 17 15 18 18 14 15 15 15 15 17 13 13 12 12 12 15 16 nan nan nan
nan 27 20 nan nan nan 14 21 25 26 23 19 19 20 17 17 18 18 18 17 17 17 12 8 9 15 16 17 16 16 19 19 nan
nan 33 32 nan nan 22 21 19 17 21 22 24 22 22 18 16 16 17 17 15 15 15 7 0 10 14 16 15 16 17 20 21 22
nan 27 26 nan 25 27 30 28 19 15 22 24 21 20 20 17 14 13 13 10 11 8 5 6 9 12 14 17 17 18 19 22 27
24 26 27 20 18 26 25 22 19 19 19 18 20 20 21 15 16 12 5 4 7 8 5 9 12 15 17 19 18 22 24 24 28
14 14 23 nan nan 17 21 20 17 18 16 18 19 22 20 16 14 10 2 3 3 6 4 5 11 17 18 17 21 25 28 28 33
19 31 25 nan nan 12 21 22 22 17 19 17 22 24 22 18 14 11 6 5 4 5 6 7 10 13 16 21 25 28 30 32 36
23 29 nan nan nan 13 20 26 23 17 18 19 21 26 29 22 17 14 12 9 6 8 4 7 12 15 17 21 21 26 31 33 37
nan 16 nan nan nan 21 22 25 23 18 22 20 25 25 26 24 19 17 15 13 12 11 8 13 19 20 21 23 20 28 35 37 35
nan nan nan nan 32 31 24 24 23 24 24 31 32 30 24 22 22 17 17 19 18 14 17 21 16 17 20 17 20 28 36 38 37
nan nan nan 31 30 29 27 27 27 28 34 28 25 25 26 21 22 22 19 22 20 21 21 18 20 23 25 21 17 24 36 43 41
nan nan nan nan 46 35 31 35 35 34 38 28 31 28 27 21 22 26 27 23 24 23 23 24 24 27 33 34 28 32 42 45 43
nan nan nan nan 57 53 44 30 42 47 37 32 32 25 28 26 27 30 29 26 28 29 30 32 32 36 33 32 37 41 49 45 44
48 nan nan nan nan 60 50 41 50 41 38 41 27 23 27 29 34 30 32 30 31 35 38 39 42 47 44 26 39 40 44 47 48
36 50 48 nan nan nan 52 56 64 54 46 31 36 31 34 37 35 39 39 39 37 39 40 42 48 55 35 30 37 42 44 47 51
41 43 45 56 66 nan nan 58 53 58 46 50 51 46 42 35 37 43 44 47 47 42 41 45 50 42 38 38 40 41 45 48 52
56 59 58 54 53 58 59 59 55 53 58 57 51 45 43 47 45 47 48 50 53 45 47 49 47 34 40 42 44 47 50 50 52
57 56 59 63 61 54 50 53 57 58 66 69 69 50 50 50 50 54 55 59 56 51 50 51 33 39 44 47 48 49 54 58 58
59 62 56 58 59 56 54 62 46 53 59 64 75 73 84 42 48 57 56 63 60 58 36 45 47 51 54 49 54 62 62 65 nan
54 54 56 57 60 68 56 34 50 61 61 62 65 75 79 70 58 69 50 61 45 25 39 52 53 56 60 63 64 70 nan nan nan
Wind_Direction
nan 338 331 nan nan 344 348 351 336 331 326 324 313 309 315 308 307 281 275 282 282 288 302 311 330 346 351 339 336 334 nan nan nan
nan 343 347 nan nan nan 5 10 354 342 333 339 336 327 312 311 304 293 282 279 280 282 288 302 335 338 336 338 340 341 348 343 nan
nan 339 343 nan nan 352 356 22 359 338 339 345 345 346 335 317 303 294 288 273 280 284 271 33 322 325 334 340 351 343 349 355 344
nan 320 330 nan 338 329 326 332 350 336 328 335 339 338 343 337 318 303 288 259 261 261 269 337 329 333 330 334 337 338 350 351 355
326 333 329 316 312 315 308 333 333 339 324 329 339 335 342 344 327 308 289 237 203 213 286 319 336 328 333 337 330 345 349 348 357
273 280 260 nan nan 293 315 328 325 330 322 328 328 329 337 343 336 320 254 173 148 207 256 299 313 320 327 330 337 335 344 345 348
280 260 242 nan nan 275 301 309 316 330 320 313 315 322 332 345 335 326 290 217 196 235 265 282 293 297 315 325 330 336 348 349 353
258 286 nan nan nan 276 273 293 301 316 308 311 313 324 326 335 326 305 277 270 236 247 268 270 274 281 305 317 331 341 348 345 350
nan 258 nan nan nan 309 277 285 294 299 301 311 305 315 329 311 311 307 294 277 255 256 258 265 286 304 312 323 332 343 342 341 345
nan nan nan nan 306 306 282 267 281 285 290 290 299 305 308 307 303 306 297 280 264 263 264 275 284 291 305 320 336 341 339 340 333
nan nan nan 245 269 284 278 283 273 279 280 294 305 304 305 303 302 301 294 285 276 264 272 283 282 298 300 301 294 334 327 333 332
nan nan nan nan 264 270 271 263 254 266 270 284 293 294 297 292 290 289 292 297 278 267 267 276 293 291 294 304 316 324 317 321 326
nan nan nan nan 254 258 266 272 275 264 261 276 282 292 298 288 281 276 283 287 277 264 271 280 279 284 296 307 309 315 317 319 328
233 nan nan nan nan 263 265 268 270 286 273 274 280 286 270 269 285 262 268 269 269 273 268 268 273 273 267 291 310 314 317 325 325
239 239 240 nan nan nan 260 266 271 276 268 287 277 270 267 265 271 250 253 264 266 273 267 271 273 271 282 304 308 315 325 329 325
239 226 225 236 249 nan nan 252 270 280 281 267 258 268 266 259 261 253 256 263 265 267 264 265 267 283 297 303 306 308 314 318 317
238 243 236 229 234 251 255 263 260 262 270 276 265 253 255 260 262 258 254 253 258 263 259 261 268 287 293 297 299 300 303 305 305
244 247 240 242 236 235 239 261 261 259 262 268 266 249 245 246 245 248 248 241 242 248 249 259 277 283 285 290 296 297 300 303 307
238 241 248 251 257 247 241 230 236 257 255 252 259 259 264 240 241 249 235 242 236 226 243 271 278 284 285 280 286 296 297 301 nan
248 249 255 257 263 253 251 221 172 242 247 243 243 249 257 255 250 256 247 250 259 270 248 254 259 278 283 294 297 298 nan nan nan